This is the latest recevied weather packets stored in our database for station/object DB0FN-10. If no packets are shown the sender has not sent any weather packets the latest 10 day(s).
| Time | Temp. | Humidity | Pressure | Rain* | Wind** | Luminosity | Snow |
|---|---|---|---|---|---|---|---|
| 1787709723 | 23.89° C | 62% | 1020.9 hPa | - | - | - | - |
| 1787708823 | 23.89° C | 62% | 1020.9 hPa | - | - | - | - |
| 1787707923 | 24.44° C | 59% | 1020.7 hPa | - | - | - | - |
| 1787707023 | 23.89° C | 60% | 1020.6 hPa | - | - | - | - |
| 1787706123 | 24.44° C | 58% | 1020.4 hPa | - | - | - | - |
| 1787705223 | 23.89° C | 60% | 1020.4 hPa | - | - | - | - |
| 1787704323 | 23.89° C | 62% | 1020.5 hPa | - | - | - | - |
| 1787703423 | 23.89° C | 62% | 1020.5 hPa | - | - | - | - |
| 1787702523 | 24.44° C | 61% | 1020.6 hPa | - | - | - | - |
| 1787701622 | 23.89° C | 62% | 1020.6 hPa | - | - | - | - |
| 1787700722 | 23.89° C | 61% | 1020.6 hPa | - | - | - | - |
| 1787699822 | 24.44° C | 60% | 1020.5 hPa | - | - | - | - |
| 1787698922 | 24.44° C | 57% | 1020.5 hPa | - | - | - | - |
| 1787698022 | 24.44° C | 56% | 1020.6 hPa | - | - | - | - |
| 1787697122 | 25° C | 55% | 1020.5 hPa | - | - | - | - |
| 1787696222 | 24.44° C | 59% | 1020.4 hPa | - | - | - | - |
| 1787695322 | 24.44° C | 59% | 1020.6 hPa | - | - | - | - |
| 1787694422 | 24.44° C | 57% | 1020.5 hPa | - | - | - | - |
| 1787692622 | 24.44° C | 59% | 1020.6 hPa | - | - | - | - |
| 1787691722 | 24.44° C | 64% | 1020.5 hPa | - | - | - | - |
| 1787690822 | 25° C | 57% | 1020.7 hPa | - | - | - | - |
| 1787689921 | 25° C | 59% | 1020.4 hPa | - | - | - | - |
| 1787689021 | 24.44° C | 62% | 1020.4 hPa | - | - | - | - |
| 1787688121 | 24.44° C | 63% | 1020.5 hPa | - | - | - | - |
| 1787687221 | 24.44° C | 62% | 1020.3 hPa | - | - | - | - |
* Rain since midnight (hover to see other rain measurements)
** Current wind speed in m/s (hover to see current wind gust speed)